GW3984 Weather Reports


Display with metric or nautical units.
time (UTC)temp
F
wind
direction
speed
MPH
gust
MPH
rain 1hr
in
rain 24hr
in
rain mn
in
humidity
%
barometer
mb
20260506131532 73 169 0.0 2.0 0.00 0.00 0.00 91 1009.6
20260506130045 74 173 0.0 3.0 0.00 0.00 0.00 92 1008.5
20260506130029 73 151 1.0 4.0 0.00 0.00 0.00 91 1009.3
20260506125035 74 210 0.0 1.0 0.00 0.00 0.00 92 1008.5
20260506124519 73 112 0.0 2.0 0.00 0.00 0.00 91 1009.3
20260506124038 74 108 0.0 0.0 0.00 0.00 0.00 92 1008.6
20260506123045 74 127 0.0 1.0 0.00 0.00 0.00 91 1008.6
20260506123015 73 111 0.0 2.0 0.00 0.00 0.00 90 1009.4
20260506121514 74 96 0.0 2.0 0.00 0.00 0.00 90 1009.4
20260506120953 74 141 0.0 1.0 0.00 0.00 0.00 90 1008.6
20260506120031 74 98 0.0 2.0 0.00 0.00 0.00 89 1009.3
20260506120003 74 95 0.0 0.0 0.00 0.00 0.00 90 1008.6
20260506114932 74 179 0.0 1.0 0.00 0.00 0.00 90 1008.5
20260506114526 74 129 0.0 2.0 0.00 0.00 0.00 89 1009.3
20260506113921 74 120 0.0 1.0 0.00 0.00 0.00 90 1008.5
20260506113033 74 147 0.0 2.0 0.00 0.00 0.00 89 1009.2
20260506112918 74 124 0.0 0.0 0.00 0.00 0.00 89 1008.5
20260506111854 74 135 0.0 1.0 0.00 0.00 0.00 89 1008.5
20260506111524 74 189 0.0 2.0 0.00 0.00 0.00 89 1009.2
20260506110854 74 247 0.0 1.0 0.00 0.00 0.00 89 1008.3
20260506110032 74 126 0.0 2.0 0.00 0.00 0.00 89 1009.1
20260506104708 74 129 0.0 3.0 0.00 0.00 0.00 89 1008.3
20260506104526 74 124 0.0 3.0 0.00 0.00 0.00 89 1008.9
20260506103635 74 120 0.0 3.0 0.00 0.00 0.00 89 1008.3
20260506103023 74 102 0.0 3.0 0.00 0.00 0.00 89 1008.9
20260506102607 74 110 0.0 2.0 0.00 0.00 0.00 89 1008.3
20260506101535 74 192 0.0 1.0 0.00 0.00 0.00 89 1008.4
20260506101516 74 167 0.0 1.0 0.00 0.00 0.00 88 1009.1
20260506100506 74 176 0.0 1.0 0.00 0.00 0.00 89 1008.3
20260506100026 74 117 0.0 6.0 0.00 0.00 0.00 89 1009.0
20260506095503 74 165 0.0 3.0 0.00 0.00 0.00 89 1008.3
20260506094527 74 200 0.0 5.0 0.00 0.00 0.00 89 1008.9
20260506094439 74 162 0.0 1.0 0.00 0.00 0.00 89 1008.2
20260506093501 74 162 0.0 4.0 0.00 0.00 0.00 89 1008.1
20260506093032 74 108 1.0 4.0 0.00 0.00 0.00 89 1008.8
20260506092521 74 117 0.0 3.0 0.00 0.00 0.00 89 1008.1
20260506091536 74 190 0.0 3.0 0.00 0.00 0.00 89 1008.0
20260506091526 74 193 1.0 4.0 0.00 0.00 0.00 88 1008.7
20260506090518 75 114 0.0 10.0 0.00 0.00 0.00 88 1008.0
20260506090029 74 109 2.0 8.0 0.00 0.00 0.00 88 1008.6
20260506085504 75 134 1.0 10.0 0.00 0.00 0.00 88 1008.0
20260506084528 74 78 3.0 8.0 0.00 0.00 0.00 88 1008.6
20260506084443 75 126 1.0 6.0 0.00 0.00 0.00 89 1007.9
20260506083508 74 138 0.0 6.0 0.00 0.00 0.00 89 1008.1
20260506083029 74 211 1.0 8.0 0.00 0.00 0.00 88 1008.8
20260506082525 74 117 1.0 6.0 0.00 0.00 0.00 89 1008.1
20260506081521 74 132 1.0 7.0 0.00 0.00 0.00 88 1008.9
20260506081453 75 54 1.0 5.0 0.00 0.00 0.00 89 1008.1
20260506080427 75 77 0.0 5.0 0.00 0.00 0.00 89 1008.1
20260506073352 75 189 1.0 7.0 0.00 0.00 0.00 89 1008.3
20260506073012 74 134 3.0 8.0 0.00 0.00 0.00 88 1009.0
20260506072325 75 192 0.0 6.0 0.00 0.00 0.00 89 1008.4
20260506071512 75 142 1.0 8.0 0.00 0.00 0.00 88 1009.3
20260506071332 75 85 1.0 6.0 0.00 0.00 0.00 89 1008.6
20260506062157 75 103 1.0 5.0 0.00 0.00 0.00 88 1008.8
20260506061522 75 130 2.0 8.0 0.00 0.00 0.00 87 1009.5
20260506061141 75 172 1.0 6.0 0.00 0.00 0.00 88 1008.8
20260506060157 75 166 1.0 6.0 0.00 0.00 0.00 88 1008.8
20260506050901 76 101 1.0 5.0 0.00 0.00 0.00 87 1008.8
20260506044823 76 152 1.0 9.0 0.00 0.00 0.00 87 1008.5
20260506044509 76 187 1.0 8.0 0.00 0.00 0.00 87 1009.2
20260506043758 76 107 1.0 9.0 0.00 0.00 0.00 87 1008.4
20260506043023 76 144 3.0 11.0 0.00 0.00 0.00 87 1009.3
20260506042812 76 65 0.0 8.0 0.00 0.00 0.00 87 1008.5
20260506041821 76 107 1.0 8.0 0.00 0.00 0.00 87 1008.5
20260506041526 76 74 2.0 7.0 0.00 0.00 0.00 86 1009.1
20260506040021 76 112 3.0 7.0 0.00 0.00 0.00 86 1009.0
20260506034550 77 126 0.0 4.0 0.00 0.00 0.00 86 1008.2
20260506034519 76 105 1.0 6.0 0.00 0.00 0.00 85 1008.9
20260506033547 77 145 1.0 5.0 0.00 0.00 0.00 86 1008.1
20260506033023 77 132 2.0 7.0 0.00 0.00 0.00 85 1008.9
20260506031525 77 144 1.0 8.0 0.00 0.00 0.00 84 1008.4
20260506031349 78 112 1.0 6.0 0.00 0.00 0.00 84 1007.6
20260506030335 78 135 0.0 2.0 0.00 0.00 0.00 84 1007.5
20260506030011 78 105 0.0 7.0 0.00 0.00 0.00 83 1008.4
20260506024509 78 136 1.0 5.0 0.00 0.00 0.00 82 1008.1
20260506023046 79 122 0.0 5.0 0.00 0.00 0.00 81 1007.0
20260506023026 79 129 2.0 7.0 0.00 0.00 0.00 80 1007.8
20260506022025 79 148 0.0 4.0 0.00 0.00 0.00 80 1006.9
20260506021523 79 158 2.0 5.0 0.00 0.00 0.00 79 1007.6
20260506020957 80 170 1.0 4.0 0.00 0.00 0.00 79 1006.7
20260506020027 79 126 1.0 5.0 0.00 0.00 0.00 79 1007.6
20260506020004 79 124 0.0 3.0 0.00 0.00 0.00 79 1006.7
20260506015024 80 160 0.0 4.0 0.00 0.00 0.00 79 1006.5
20260506014523 79 123 2.0 6.0 0.00 0.00 0.00 79 1007.2
20260506013952 80 108 0.0 4.0 0.00 0.00 0.00 79 1006.3
20260506013022 79 111 1.0 3.0 0.00 0.00 0.00 78 1007.0
20260506012932 80 123 0.0 2.0 0.00 0.00 0.00 79 1006.1
20260506011924 80 170 0.0 1.0 0.00 0.00 0.00 79 1006.2
20260506011519 80 139 0.0 2.0 0.00 0.00 0.00 78 1007.2
20260506010912 81 141 0.0 0.0 0.00 0.00 0.00 78 1006.2
20260506010043 80 122 0.0 2.0 0.00 0.00 0.00 77 1007.0
20260506005839 81 124 0.0 0.0 0.00 0.00 0.00 78 1006.1
20260506004511 80 105 0.0 0.0 0.00 0.00 0.00 79 1006.9
20260506003720 80 101 0.0 0.0 0.00 0.00 0.00 80 1005.9
20260506003008 81 105 0.0 2.0 0.00 0.00 0.00 76 1006.8
20260506002705 82 101 0.0 0.0 0.00 0.00 0.00 74 1005.9
20260506001705 83 121 0.0 0.0 0.00 0.00 0.00 73 1005.9
20260506001508 82 123 0.0 2.0 0.00 0.00 0.00 72 1006.8
20260506000657 83 154 0.0 1.0 0.00 0.00 0.00 72 1005.8
20260506000009 83 133 0.0 3.0 0.00 0.00 0.00 71 1006.7
20260505235656 84 131 0.0 2.0 0.00 0.00 0.00 70 1005.9
20260505234720 84 122 0.0 1.0 0.00 0.00 0.00 70 1005.7
20260505234526 83 152 1.0 7.0 0.00 0.00 0.00 68 1006.6
20260505233712 84 127 0.0 5.0 0.00 0.00 0.00 70 1005.7
20260505233022 84 136 1.0 4.0 0.00 0.00 0.00 69 1006.6
20260505232732 84 96 0.0 0.0 0.00 0.00 0.00 70 1005.7
20260505231755 84 187 0.0 4.0 0.00 0.00 0.00 69 1005.7
20260505231520 83 135 1.0 6.0 0.00 0.00 0.00 68 1006.6
20260505230734 84 102 0.0 4.0 0.00 0.00 0.00 69 1005.7
20260505230025 84 88 2.0 5.0 0.00 0.00 0.00 68 1006.4
20260505225722 84 84 0.0 8.0 0.00 0.00 0.00 69 1005.6
20260505224728 85 199 1.0 8.0 0.00 0.00 0.00 67 1005.6
20260505224516 84 96 1.0 10.0 0.00 0.00 0.00 67 1006.4
20260505223744 84 172 0.0 5.0 0.00 0.00 0.00 67 1005.6
20260505223011 85 289 0.0 7.0 0.00 0.00 0.00 67 1006.6
20260505222800 85 176 1.0 5.0 0.00 0.00 0.00 67 1005.8
20260505221818 84 207 1.0 6.0 0.00 0.00 0.00 69 1005.7
20260505221513 84 107 4.0 9.0 0.00 0.00 0.00 67 1006.6
20260505220801 85 148 0.0 6.0 0.00 0.00 0.00 67 1005.8
20260505220009 85 91 1.0 7.0 0.00 0.00 0.00 67 1006.7
20260505215756 85 113 1.0 5.0 0.00 0.00 0.00 67 1005.8
20260505214804 85 147 0.0 0.0 0.00 0.00 0.00 68 1005.9
20260505214526 84 164 1.0 8.0 0.00 0.00 0.00 67 1006.7
20260505213809 85 118 0.0 8.0 0.00 0.00 0.00 67 1006.1
20260505213028 85 130 1.0 10.0 0.00 0.00 0.00 65 1007.0
20260505212753 85 359 1.0 8.0 0.00 0.00 0.00 68 1006.2
20260505211524 83 123 2.0 8.0 0.00 0.00 0.00 68 1007.3
20260505210657 84 202 0.0 4.0 0.00 0.00 0.00 68 1006.4
20260505210021 84 163 1.0 6.0 0.00 0.00 0.00 68 1007.5
20260505205707 84 126 0.0 4.0 0.00 0.00 0.00 68 1006.8
20260505204723 85 60 0.0 5.0 0.00 0.00 0.00 68 1006.9
20260505204518 84 147 1.0 4.0 0.00 0.00 0.00 68 1007.7
20260505203701 84 204 1.0 5.0 0.00 0.00 0.00 70 1007.1
20260505203028 83 210 2.0 7.0 0.00 0.00 0.00 69 1007.9
20260505202627 84 314 0.0 5.0 0.00 0.00 0.00 71 1007.2
20260505201609 84 129 0.0 3.0 0.00 0.00 0.00 68 1007.3
20260505201517 84 196 1.0 4.0 0.00 0.00 0.00 68 1008.2
20260505200631 83 117 0.0 5.0 0.00 0.00 0.00 71 1007.4
20260505200010 83 9 1.0 7.0 0.00 0.00 0.00 69 1008.3
20260505195653 83 139 0.0 5.0 0.00 0.00 0.00 69 1007.6
20260505194714 83 8 1.0 5.0 0.00 0.00 0.00 70 1007.6
20260505194527 82 132 2.0 8.0 0.00 0.00 0.00 71 1008.5
20260505193648 82 116 0.0 6.0 0.00 0.00 0.00 72 1007.8
20260505193028 82 13 2.0 8.0 0.00 0.00 0.00 71 1008.8
20260505192712 82 146 0.0 6.0 0.00 0.00 0.00 70 1007.8
20260505191722 83 79 0.0 4.0 0.00 0.00 0.00 71 1008.0
20260505191527 82 174 0.0 6.0 0.00 0.00 0.00 75 1008.8
20260505190659 82 78 0.0 4.0 0.00 0.00 0.00 71 1008.1
20260505190032 80 98 1.0 4.0 0.00 0.00 0.00 74 1009.0
20260505185638 81 194 0.0 3.0 0.00 0.00 0.00 73 1008.2
20260505184657 81 197 0.0 3.0 0.00 0.00 0.00 74 1008.4
20260505184520 80 134 2.0 4.0 0.00 0.00 0.00 74 1009.2
20260505183634 80 108 0.0 3.0 0.00 0.00 0.00 75 1008.6
20260505183018 79 109 2.0 4.0 0.00 0.00 0.00 75 1009.4
20260505182634 80 309 0.0 2.0 0.00 0.00 0.00 75 1008.6
20260505181610 80 332 0.0 3.0 0.00 0.00 0.00 75 1008.8
20260505181515 80 274 1.0 4.0 0.00 0.00 0.00 75 1009.5
20260505180632 79 185 0.0 3.0 0.00 0.00 0.00 77 1008.9
20260505180014 79 229 0.0 3.0 0.00 0.00 0.00 76 1009.6
20260505174528 79 74 0.0 4.0 0.00 0.00 0.00 77 1009.6
20260505173348 78 125 0.0 4.0 0.00 0.00 0.00 79 1009.0
20260505173036 78 193 2.0 6.0 0.00 0.00 0.00 80 1009.7
20260505172356 77 1 0.0 4.0 0.00 0.00 0.00 80 1009.1
20260505171538 76 184 1.0 4.0 0.00 0.00 0.00 81 1009.8
20260505170235 77 68 0.0 4.0 0.00 0.00 0.00 79 1009.1
20260505170027 77 243 0.0 4.0 0.00 0.00 0.00 79 1009.8
20260505165240 78 201 0.0 3.0 0.00 0.00 0.00 80 1009.1
20260505164525 76 203 0.0 6.0 0.00 0.00 0.00 82 1009.7
20260505164231 76 21 0.0 3.0 0.00 0.00 0.00 84 1008.9
20260505163246 74 186 0.0 2.0 0.00 0.00 0.00 86 1009.0
20260505163024 74 173 1.0 2.0 0.00 0.00 0.00 86 1009.8
20260505162249 74 342 0.0 3.0 0.00 0.00 0.00 87 1009.1
20260505161518 73 124 1.0 2.0 0.00 0.00 0.00 87 1009.9
20260505161257 73 102 0.0 3.0 0.00 0.00 0.00 87 1009.1
20260505153104 72 207 0.0 1.0 0.00 0.00 0.00 89 1009.1
20260505153013 72 209 0.0 2.0 0.00 0.00 0.00 89 1009.9
20260505152046 72 343 0.0 1.0 0.00 0.00 0.00 90 1009.0
20260505151520 71 293 0.0 3.0 0.00 0.00 0.00 90 1009.7
20260505151028 71 186 0.0 2.0 0.00 0.00 0.00 91 1009.0